Regional Weather Roundup
Issued by NWS

Home | Current Version | Previous Version | Text Only | Print | Product List | Glossary Off
Versions: 1 2 3 4 5 6 7 8 9 10 11 12 13 14 15 16 17 18 19 20 21 22 23 24 25 26 27 28 29 30 31 32 33 34 35 36 37 38 39 40 41 42 43 44 45 46 47 48 49 50

000
ASUS43 KOAX 260702
RWRNE

WEATHER ROUNDUP FOR NEBRASKA
NATIONAL WEATHER SERVICE OMAHA NE
100 AM CST SUN FEB 26 2017

NOTES: SATELLITE DATA IS BEING USED TO AUGMENT CLOUD COVER ABOVE
       12000 FEET.
       "FAIR" INDICATES FEW OR NO CLOUDS BELOW 12,000 FEET WITH NO
       SIGNIFICANT WEATHER AND/OR OBSTRUCTIONS TO VISIBILITY.

  * THESE STATIONS DO NOT REPORT WEATHER SUCH AS RAIN...SNOW OR FOG.

NEZ001>004-019>022-054>056-260800-
NEBRASKA PANHANDLE

CITY           SKY/WX    TMP DP  RH WIND       PRES   REMARKS
SCOTTSBLUFF    CLEAR     10   3  73 NW8       29.80S WCI  -2
ALLIANCE       CLEAR      1  -3  83 W10       29.76S WCI -15
CHADRON        CLEAR     14   4  64 S9G21     29.78S WCI   2
KIMBALL        CLEAR     15   6  68 W10       29.80S WCI   2
SIDNEY         CLEAR     17   6  62 W16       29.82R WCI   2
$$

NEZ057>060-069>072-079>082-260800-
SOUTHWEST NEBRASKA

CITY           SKY/WX    TMP DP  RH WIND       PRES   REMARKS
NORTH PLATTE   CLEAR     19  13  77 W8        29.84S WCI   9
IMPERIAL       PTCLDY    24  15  68 SW9       29.85S WCI  14
LEXINGTON      PTCLDY    23  15  72 SW6       29.85F WCI  16
MCCOOK         PTCLDY    25  15  66 SW8       29.87S WCI  16
OGALLALA       CLEAR     15  12  87 SW6       29.84S WCI   7
$$

NEZ005>010-023>029-035>040-094-260800-
NORTH CENTRAL NEBRASKA

CITY           SKY/WX    TMP DP  RH WIND       PRES   REMARKS
VALENTINE      CLEAR     10   3  73 W7        29.76R WCI  -1
AINSWORTH      CLEAR     17  10  75 SW12      29.75F WCI   4
BROKEN BOW     CLEAR     20  12  71 W6        29.82S WCI  12
O`NEILL        CLEAR     22  15  76 W7        29.78F WCI  13
ORD            CLEAR     23  13  65 SW15      29.82S WCI  10
THEDFORD       CLEAR     20  11  67 W12       29.79S WCI   9
$$

NEZ041-046>049-061>064-073>077-083>087-260800-
SOUTH CENTRAL NEBRASKA

CITY           SKY/WX    TMP DP  RH WIND       PRES   REMARKS
GRAND ISLAND   PTCLDY    28  20  71 SW10      29.87R WCI  19
AURORA         CLOUDY    29  24  79 SW9       29.87R WCI  21
HASTINGS       CLOUDY    30  20  66 SW8       29.90R WCI  22
HEBRON         CLOUDY    33  24  68 SW10      29.93R WCI  25
HOLDREGE       CLOUDY    30  16  55 SW8       29.87F WCI  22
KEARNEY *      MOCLDY    30  19  64 SW8       29.88R WCI  23
YORK           CLOUDY    28  25  86 SW9       29.88R WCI  20
$$

NEZ011>018-030>034-042>045-260800-
NORTHEAST NEBRASKA

CITY           SKY/WX    TMP DP  RH WIND       PRES   REMARKS
NORFOLK        CLEAR     22  16  78 NW8       29.81S WCI  12
ALBION         CLEAR     25  17  73 CALM      29.82F
BLAIR          MOCLDY    31  25  79 S9        29.85S WCI  23
FREMONT        CLOUDY    29  25  82 S7        29.85F WCI  22
TEKAMAH        CLOUDY    23  19  85 S8        29.84F WCI  14
WAYNE          PTCLDY    24  19  82 SW6       29.82R WCI  17
$$

NEZ050>053-065>068-078-088>093-260800-
SOUTHEAST NEBRASKA

CITY           SKY/WX    TMP DP  RH WIND       PRES   REMARKS
LINCOLN        CLOUDY    32  27  81 SW8       29.91R WCI  25
OMAHA EPPLEY   MOCLDY    35  23  61 SW12      29.87F WCI  27
BEATRICE       PTCLDY    32  20  63 SW9       29.92S WCI  24
FALLS CITY     CLOUDY    34  19  54 S10       29.93F WCI  26
NEBRASKA CITY  CLOUDY    32  18  57 SW13      29.90S WCI  22
PLATTSMOUTH    CLEAR     32  19  57 S12       29.88S WCI  23
$$

NEZ044-045-051>053-067-260800-
OMAHA AREA

CITY           SKY/WX    TMP DP  RH WIND       PRES   REMARKS
OMAHA EPPLEY   MOCLDY    35  23  61 SW12      29.87F WCI  27
BLAIR          MOCLDY    31  25  79 S9        29.85S WCI  23
FREMONT        CLOUDY    29  25  82 S7        29.85F WCI  22
MILLARD        PTCLDY    33  25  72 S3        29.89S
OFFUTT AFB     PTCLDY    32  20  60 SW6       29.89R WCI  26
PLATTSMOUTH    CLEAR     32  19  57 S12       29.88S WCI  23
WAHOO          PTSUNNY   30  24  79 SW9       29.87S WCI  22
$$



USA.gov is the U.S. government's official web portal to all federal, state and local government web resources and services.